Hourly Data Report for December 10, 2020

L'ASSOMPTION
QUEBEC
Current Station Operator: ECCC - MSC

45°48'34.000" N
73°26'05.000" W
21.00 m
7014160
71524
WEW

Download Data

Hourly Data (December 2020)
Hourly Data Report for December 10, 2020
TIME
LST
Temp Definition
°C
Dew Point Definition
°C
Rel Hum Definition
%
Precip. Amount Definition
mm

Wind Dir Definition
10's deg

Wind Spd Definition
km/h
Visibility Definition
km
Stn Press Definition
kPa
Hmdx Definition


Wind Chill Definition


Weather Definition


00:00 -2.5 -3.4 94 0.0 25 3   100.36   -4 LegendNANA
01:00 -2.5 -3.3 95 0.2 23 2   100.39   -3 LegendNANA
02:00 -2.7 -3.4 95 0.0 23 2   100.45   -3 LegendNANA
03:00 -3.3 -3.9 95 0.0 23 3   100.54   -5 LegendNANA
04:00 -1.7 -2.3 96 0.0 23 5   100.62   -4 LegendNANA
05:00 -0.7 -2.0 91 0.0 23 9   100.69   -4 LegendNANA
06:00 -1.1 -2.5 90 0.0 24 11   100.82   -5 LegendNANA
07:00 -0.5 -3.4 81 0.0 26 13   100.94   -5 LegendNANA
08:00 -0.5 -3.8 78 0.0 26 13   101.09   -5 LegendNANA
09:00 -0.4 -4.2 76 0.0 25 10   101.22   -4 LegendNANA
10:00 0.5 -3.1 77 0.0 24 7   101.35     LegendNANA
11:00 1.9 -4.0 65 0.0 28 13   101.39     LegendNANA
12:00 2.1 -4.9 60 0.0 28 16   101.42     LegendNANA
13:00 2.2 -4.9 59 0.0 28 9   101.47     LegendNANA
14:00 2.2 -3.5 66 0.0 26 7   101.52     LegendNANA
15:00 1.7 -2.6 73 0.0 23 5   101.57     LegendNANA
16:00 1.1 -2.5 77 0.0 24 7   101.66     LegendNANA
17:00 -0.3 -3.5 79 0.0 24 7   101.76   -3 LegendNANA
18:00 -1.5 -4.5 80 0.0 24 7   101.81   -4 LegendNANA
19:00 -2.7 -5.4 82 0.0 23 5   101.88   -5 LegendNANA
20:00 -2.9 -5.4 83 0.0 22 5   101.87   -5 LegendNANA
21:00 -2.5 -5.0 83 0.0 23 4   101.88   -4 LegendNANA
22:00 -2.3 -4.6 84 0.0 22 5   101.89   -4 LegendNANA
23:00 -2.3 -4.5 85 0.0 22 2   101.88   -3 LegendNANA

Notes on Data Quality.

Legend

  • E = Estimated
  • M = Missing
  • NA = Not Available*
  • [empty] = Indicates an unobserved value
Date modified: